Regional Weather Roundup
Issued by NWS Green Bay, WI

Home | Current Version | Previous Version | Graphics & Text | Print | Product List | Glossary Off
Versions: 1 2 3 4 5 6 7 8 9 10 11 12 13 14 15 16 17 18 19 20 21 22 23 24 25 26 27 28 29 30 31 32 33 34 35 36 37 38 39 40 41 42 43 44 45 46 47 48 49 50

795
ASUS43 KGRB 201900
RWRGRB

NORTH-CENTRAL AND NORTHEAST WISCONSIN REGIONAL WEATHER ROUNDUP
NATIONAL WEATHER SERVICE GREEN BAY WI
100 PM CST MON NOV 20 2017

WIZ005-009-010>012-018-019-202000-
NORTH CENTRAL WISCONSIN

CITY           SKY/WX    TMP DP  RH WIND       PRES   REMARKS
IRONWOOD       CLOUDY    39  28  64 S8        29.46F
MANITOWISH WTR NOT AVBL
ARBOR VITAE    NOT AVBL
EAGLE RIVER    MOSUNNY   40  28  61 S7        29.52F
LAND O LAKES   NOT AVBL
RHINELANDER    CLOUDY    44  28  53 S10       29.54F
PHILLIPS       CLOUDY    42  28  58 S9        29.49F
ANTIGO         NOT AVBL
TOMAHAWK       NOT AVBL
MERRILL        CLOUDY    41  29  61 S7        29.56F
$$

WIZ013-073-202000-
NORTHEAST WISCONSIN

CITY           SKY/WX    TMP DP  RH WIND       PRES   REMARKS
IRON MOUNTAIN  CLOUDY    38  24  57 SE9       29.58F
MARINETTE      SUNNY     41  30  65 SW12      29.65F
$$

WIZ017-030-035>037-045-202000-
CENTRAL WISCONSIN

CITY           SKY/WX    TMP DP  RH WIND       PRES   REMARKS
MEDFORD        NOT AVBL
WAUSAU         CLOUDY    43  28  55 S9        29.55F
MOSINEE        PTSUNNY   45  28  53 SE8       29.57F
MARSHFIELD     CLOUDY    46  28  49 SE13      29.54F
WISC RAPIDS    CLOUDY    49  29  46 SW13G22   29.59F
STEVENS POINT  NOT AVBL
WAUPACA        NOT AVBL
SHAWANO        CLOUDY    46  29  52 S5        29.62F
CLINTONVILLE   NOT AVBL
WAUTOMA        SUNNY     47  28  47 S15         N/A
$$

WIZ038-039-048-051-202000-
FOX VALLEY

CITY           SKY/WX    TMP DP  RH WIND       PRES   REMARKS
NWS GREEN BAY  CLOUDY    42  32  67 S14       29.65F
APPLETON       MOSUNNY   45  27  49 S15       29.63F
OSHKOSH        SUNNY     46  31  55 S12G21    29.65F
FOND DU LAC    SUNNY     46  30  53 S14G26    29.66F
$$

WIZ022-050-052-202000-
EAST CENTRAL WISCONSIN

CITY           SKY/WX    TMP DP  RH WIND       PRES   REMARKS
EPHRAIM        NOT AVBL
WASHINGTON ISL NOT AVBL
STURGEON BAY   CLOUDY    42  30  62 S13       29.65F
MANITOWOC      SUNNY     44  31  60 SE13      29.68F
SHEBOYGAN      SUNNY     49  32  52 S9        29.68F
$$

LMZ563-521-522-541>543-202000-
LAKESHORE

STATION/POSITION TIME  TEMP    WIND        PRES    VSBY  WAVE
                       AIR SEA DIR/SP/G                  HT/PER
                 (UTC) (F)     (DEG/KT/KT) (MB)    (MI)  (FT/S)
SHEBOYGAN LKSHOR 1800   44     200/ 13/ 14 1006.7F
KEWAUNEE LKSHORE 1830   40     170/ 15/ 17 1004.5F
NORTHPORT PIER   1840   41     170/ 10/ 16 1004.4F
N MID LAKE BUOY  1750   42 48  180/ 16/ 19 1006.6F         3/ 5
SISTER BAY LKSHO 1819   45     160/  9/ 11   N/A
MENOMINEE LKSHOR 1830   39     190/  9/ 15 1004.1F
$$




USA.gov is the U.S. government's official web portal to all federal, state and local government web resources and services.